Date String (YYYY-MM-DD hh:mm:ss) UTC,Instrument flags,absolute air pressure of the measurement (hPa),sample flow rate (lpm),inlet stack bypass flow (lpm),air temperature of the measurement (°C),ambient temperature measured by the external sensor (°C),aerosol sample conditioner tube jacket temperature (°C),OPC LED temperature (°C),internal box temperature (°C),relative humidity of the measurement (%),span deviation,mass concentration of particles derived from Lorenz-Mie calculation of OPC scattering (μg/m³),mass concentration of particles derived from Lorenz-Mie calculation of OPC scattering (μg/m³),mass concentration of particles derived from Lorenz-Mie calculation of OPC scattering (μg/m³)
DateTimeUTC,F1_M11,P_M11,Q1_M11,Q2_M11,T1_M11,T2_M11,T3_M11,T4_M11,T5_M11,U1_M11,ZSPAN_M11,X0_M11,X2_M11,X1_M11
2023-11-28 17:00:00,SystemResetWarning,0833.4,5.00,000.00,020.9,020.4,000.0,028.9,022.3,10.1,0000.0,0003.61,0002.41,0002.00
2023-11-28 17:01:00,SystemResetWarning,0833.4,5.00,000.00,020.9,020.4,000.0,028.9,022.4,9.9,0000.0,0003.56,0002.37,0001.97
2023-11-28 17:02:00,SystemResetWarning,0833.4,4.99,000.00,020.9,020.4,000.0,029.0,022.4,10.1,0000.0,0003.55,0002.34,0001.94
2023-11-28 17:03:00,SystemResetWarning,0833.4,5.01,000.00,021.0,020.5,000.0,029.0,022.5,9.8,0000.0,0003.56,0002.33,0001.92
2023-11-28 17:04:00,SystemResetWarning,0833.4,5.01,000.00,021.0,020.5,000.0,029.0,022.5,9.3,0000.0,0003.54,0002.34,0001.91
2023-11-28 17:05:00,SystemResetWarning,0833.4,5.01,000.00,021.1,020.6,000.0,029.0,022.6,9.5,0000.0,0003.54,0002.34,0001.91
2023-11-28 17:06:00,SystemResetWarning,0833.4,5.01,000.00,021.1,020.6,000.0,029.1,022.6,10.2,0000.0,0003.48,0002.30,0001.90
2023-11-28 17:07:00,SystemResetWarning,0833.4,4.99,000.00,021.1,020.7,000.0,029.1,022.7,9.8,0000.0,0003.54,0002.31,0001.91
2023-11-28 17:08:00,SystemResetWarning,0833.4,4.99,000.00,021.2,020.7,000.0,029.1,022.7,9.9,0000.0,0003.51,0002.33,0001.91
2023-11-28 17:09:00,SystemResetWarning,0833.4,5.01,000.00,021.2,020.8,000.0,029.2,022.8,9.8,0000.0,0003.34,0002.30,0001.91
2023-11-28 17:10:00,SystemResetWarning,0833.4,5.00,000.00,021.2,020.8,000.0,029.2,022.8,10.5,0000.0,0003.51,0002.33,0001.92
2023-11-28 17:11:00,SystemResetWarning,0833.4,5.00,000.00,021.3,020.8,000.0,029.2,022.8,11.2,0000.0,0003.61,0002.33,0001.91
2023-11-28 17:12:00,SystemResetWarning,0833.4,5.00,000.00,021.3,020.9,000.0,029.3,022.8,10.5,0000.0,0003.67,0002.35,0001.92
2023-11-28 17:13:00,SystemResetWarning,0833.4,5.01,000.00,021.4,020.9,000.0,029.3,022.9,9.8,0000.0,0003.61,0002.35,0001.93
2023-11-28 17:14:00,SystemResetWarning,0833.4,5.00,000.00,021.4,020.9,000.0,029.3,022.9,8.9,0000.0,0003.49,0002.31,0001.92
2023-11-28 17:15:00,SystemResetWarning,0833.4,5.00,000.00,021.4,021.0,000.0,029.4,022.9,9.4,0000.0,0003.44,0002.30,0001.93
2023-11-28 17:16:00,SystemResetWarning,0833.5,4.99,000.00,021.4,021.0,000.0,029.4,022.9,10.1,0000.0,0003.55,0002.33,0001.96
2023-11-28 17:17:00,SystemResetWarning,0833.5,5.00,000.00,021.5,021.0,000.0,029.4,022.9,10.3,0000.0,0003.91,0002.41,0002.01
2023-11-28 17:18:00,SystemResetWarning,0833.4,5.01,000.00,021.5,021.0,000.0,029.4,023.0,10.5,0000.0,0003.95,0002.46,0002.06
2023-11-28 17:19:00,SystemResetWarning,0833.4,5.01,000.00,021.5,021.0,000.0,029.5,023.0,9.2,0000.0,0004.03,0002.47,0002.08
2023-11-28 17:20:00,SystemResetWarning,0833.4,5.00,000.00,021.5,021.1,000.0,029.5,023.0,8.9,0000.0,0004.02,0002.48,0002.08
2023-11-28 17:21:00,SystemResetWarning,0833.4,5.01,000.00,021.6,021.1,000.0,029.5,023.0,9.0,0000.0,0003.88,0002.46,0002.10
2023-11-28 17:22:00,SystemResetWarning,0833.4,5.00,000.00,021.6,021.1,000.0,029.5,023.0,9.5,0000.0,0003.75,0002.44,0002.11
2023-11-28 17:23:00,SystemResetWarning,0833.4,4.99,000.00,021.6,021.1,000.0,029.6,023.1,9.6,0000.0,0003.65,0002.43,0002.12
2023-11-28 17:24:00,SystemResetWarning,0833.4,4.99,000.00,021.6,021.1,000.0,029.6,023.1,9.6,0000.0,0003.60,0002.41,0002.11
2023-11-28 17:25:00,SystemResetWarning,0833.4,5.00,000.00,021.7,021.1,000.0,029.6,023.1,9.5,0000.0,0003.66,0002.44,0002.12
2023-11-28 17:26:00,SystemResetWarning,0833.4,5.01,000.00,021.7,021.1,000.0,029.7,023.1,9.2,0000.0,0003.82,0002.46,0002.12
2023-11-28 17:27:00,SystemResetWarning,0833.4,5.00,000.00,021.7,021.2,000.0,029.7,023.1,9.1,0000.0,0004.38,0002.46,0002.11
2023-11-28 17:28:00,SystemResetWarning,0833.4,5.00,000.00,021.7,021.2,000.0,029.7,023.2,9.2,0000.0,0004.08,0002.45,0002.07
2023-11-28 17:29:00,SystemResetWarning,0833.4,5.00,000.00,021.7,021.2,000.0,029.7,023.2,9.4,0000.0,0003.96,0002.38,0002.01
2023-11-28 17:30:00,SystemResetWarning,0833.4,5.00,000.00,021.8,021.2,000.0,029.7,023.2,9.6,0000.0,0003.76,0002.32,0001.97
2023-11-28 17:31:00,SystemResetWarning,0833.3,5.00,000.00,021.8,021.3,000.0,029.8,023.2,9.4,0000.0,0003.78,0002.32,0001.96
2023-11-28 17:32:00,SystemResetWarning,0833.3,5.00,000.00,021.8,021.3,000.0,029.8,023.2,9.5,0000.0,0003.95,0002.35,0001.95
2023-11-28 17:33:00,SystemResetWarning,0833.3,4.99,000.00,021.8,021.3,000.0,029.8,023.3,9.5,0000.0,0004.07,0002.37,0001.93
2023-11-28 17:34:00,SystemResetWarning,0833.3,4.99,000.00,021.9,021.3,000.0,029.8,023.3,9.5,0000.0,0004.12,0002.37,0001.91
2023-11-28 17:35:00,SystemResetWarning,0833.3,5.00,000.00,021.9,021.3,000.0,029.9,023.3,9.7,0000.0,0004.25,0002.40,0001.90
2023-11-28 17:36:00,SystemResetWarning,0833.4,5.00,000.00,021.9,021.4,000.0,029.9,023.3,9.7,0000.0,0004.29,0002.41,0001.88
2023-11-28 17:37:00,SystemResetWarning,0833.4,5.00,000.00,021.9,021.4,000.0,029.9,023.4,9.3,0000.0,0004.23,0002.42,0001.86
2023-11-28 17:38:00,SystemResetWarning,0833.4,5.01,000.00,022.0,021.4,000.0,029.9,023.3,8.8,0000.0,0003.58,0002.38,0001.83
2023-11-28 17:39:00,SystemResetWarning,0833.4,5.00,000.00,022.0,021.4,000.0,030.0,023.4,9.2,0000.0,0003.64,0002.32,0001.80
2023-11-28 17:40:00,SystemResetWarning,0833.4,5.00,000.00,022.0,021.5,000.0,030.0,023.4,8.8,0000.0,0003.72,0002.34,0001.79
2023-11-28 17:41:00,SystemResetWarning,0833.4,5.00,000.00,022.0,021.5,000.0,030.0,023.4,8.6,0000.0,0003.75,0002.35,0001.78
2023-11-28 17:42:00,SystemResetWarning,0833.4,5.00,000.00,022.0,021.5,000.0,030.0,023.5,8.9,0000.0,0003.84,0002.35,0001.78
2023-11-28 17:43:00,SystemResetWarning,0833.3,5.00,000.00,022.0,021.5,000.0,030.1,023.5,9.7,0000.0,0003.70,0002.32,0001.78
2023-11-28 17:44:00,SystemResetWarning,0833.3,5.00,000.00,022.1,021.5,000.0,030.1,023.5,10.5,0000.0,0003.62,0002.31,0001.79
2023-11-28 17:45:00,SystemResetWarning,0833.3,5.00,000.00,022.1,021.6,000.0,030.1,023.5,11.3,0000.0,0003.55,0002.29,0001.79
2023-11-28 17:46:00,SystemResetWarning,0833.2,5.00,000.00,022.1,021.6,000.0,030.1,023.5,10.5,0000.0,0003.46,0002.27,0001.79
2023-11-28 17:47:00,SystemResetWarning,0833.2,5.00,000.00,022.1,021.6,000.0,030.1,023.6,11.4,0000.0,0003.43,0002.25,0001.79
2023-11-28 17:48:00,SystemResetWarning,0833.2,5.00,000.00,022.2,021.6,000.0,030.2,023.6,11.6,0000.0,0003.49,0002.26,0001.81
2023-11-28 17:49:00,SystemResetWarning,0833.3,5.00,000.00,022.2,021.7,000.0,030.2,023.6,11.4,0000.0,0005.48,0002.38,0001.87
2023-11-28 17:50:00,SystemResetWarning,0833.2,5.00,000.00,022.2,021.7,000.0,030.2,023.7,11.1,0000.0,0006.69,0002.52,0001.97
2023-11-28 17:51:00,SystemResetWarning,0833.3,5.00,000.00,022.2,021.7,000.0,030.2,023.7,11.2,0000.0,0007.25,0002.68,0002.07
2023-11-28 17:52:00,SystemResetWarning,0833.2,5.00,000.00,022.3,021.7,000.0,030.3,023.7,11.5,0000.0,0007.48,0002.81,0002.14
2023-11-28 17:53:00,SystemResetWarning,0833.2,5.00,000.00,022.3,021.7,000.0,030.3,023.7,11.7,0000.0,0007.63,0002.99,0002.24
2023-11-28 17:54:00,SystemResetWarning,0833.2,5.01,000.00,022.3,021.8,000.0,030.3,023.8,11.2,0000.0,0008.20,0003.13,0002.34
2023-11-28 17:55:00,SystemResetWarning,0833.2,5.00,000.00,022.3,021.8,000.0,030.3,023.8,11.2,0000.0,0008.81,0003.25,0002.45
2023-11-28 17:56:00,SystemResetWarning,0833.2,5.00,000.00,022.3,021.8,000.0,030.4,023.8,11.0,0000.0,0009.12,0003.34,0002.53
2023-11-28 17:57:00,SystemResetWarning,0833.2,5.00,000.00,022.4,021.8,000.0,030.4,023.8,10.7,0000.0,0009.30,0003.43,0002.64
2023-11-28 17:58:00,SystemResetWarning,0833.2,5.00,000.00,022.4,021.8,000.0,030.4,023.9,11.2,0000.0,0009.42,0003.51,0002.74
2023-11-28 17:59:00,SystemResetWarning,0833.2,5.00,000.00,022.4,021.8,000.0,030.4,023.9,11.1,0000.0,0009.61,0003.59,0002.86
